When you browse on this site, cookies collect data to enhance your experience and personalize the content and advertising you see.
Visit our Privacy Policy to learn more. By continuing to use the site, you agree to this use of cookies and data.
  • In Austria
  • List of Countries
  • For 7 days
  • Water Temperature
  • Weather Map
  • News
  • Weather Widgets
  • user-avatar
    Login

    Hourly Weather Kipungo

    Today, 5 December, Thursday

    Time Temperature Precipitation Wind Pressure Humidity
    00:00 +19°C° 0.1 mm 2 mps 652 mmHg 93%
    01:00 +19°C° 0 mm 2 mps 652 mmHg 92%
    02:00 +18°C° 0 mm 2 mps 651 mmHg 92%
    03:00 +18°C° 0 mm 2 mps 651 mmHg 92%
    04:00 +18°C° 0 mm 2 mps 651 mmHg 92%
    05:00 +18°C° 0 mm 2 mps 651 mmHg 90%
    06:00 +19°C° 0 mm 3 mps 652 mmHg 88%
    07:00 +19°C° 0 mm 3 mps 653 mmHg 86%
    08:00 +20°C° 0 mm 3 mps 653 mmHg 81%
    09:00 +22°C° 0 mm 3 mps 653 mmHg 75%
    10:00 +24°C° 0 mm 3 mps 653 mmHg 69%
    11:00 +25°C° 0 mm 3 mps 653 mmHg 64%
    12:00 +27°C° 0 mm 3 mps 653 mmHg 58%
    13:00 +28°C° 0 mm 3 mps 653 mmHg 53%
    14:00 +28°C° 0 mm 4 mps 652 mmHg 55%
    15:00 +28°C° 0 mm 4 mps 652 mmHg 56%
    16:00 +27°C° 0 mm 4 mps 651 mmHg 58%
    17:00 +26°C° 0.1 mm 3 mps 651 mmHg 65%
    18:00 +24°C° 0.1 mm 2 mps 651 mmHg 73%
    19:00 +21°C° 0.1 mm 2 mps 652 mmHg 80%
    20:00 +21°C° 0 mm 2 mps 652 mmHg 83%
    21:00 +20°C° 0 mm 2 mps 652 mmHg 86%
    22:00 +20°C° 0 mm 1 mps 653 mmHg 89%
    23:00 +20°C° 0 mm 1 mps 652 mmHg 91%

    Tomorrow, 6 December, Friday

    Time Temperature Precipitation Wind Pressure Humidity
    00:00 +20°C° 0 mm 1 mps 652 mmHg 93%
    01:00 +19°C° 0 mm 1 mps 652 mmHg 95%
    02:00 +19°C° 0 mm 1 mps 651 mmHg 96%
    03:00 +19°C° 0 mm 1 mps 651 mmHg 96%
    04:00 +19°C° 0 mm 1 mps 651 mmHg 97%
    05:00 +19°C° 0 mm 1 mps 652 mmHg 93%
    06:00 +20°C° 0 mm 1 mps 652 mmHg 90%
    07:00 +20°C° 0 mm 1 mps 653 mmHg 86%
    08:00 +23°C° 0 mm 1 mps 653 mmHg 76%
    09:00 +25°C° 0 mm 1 mps 653 mmHg 65%
    10:00 +27°C° 0 mm 2 mps 654 mmHg 54%
    11:00 +28°C° 0 mm 2 mps 653 mmHg 53%
    12:00 +29°C° 0 mm 3 mps 653 mmHg 52%
    13:00 +29°C° 0 mm 3 mps 653 mmHg 50%
    14:00 +28°C° 0.2 mm 4 mps 652 mmHg 54%
    15:00 +28°C° 0.2 mm 4 mps 652 mmHg 57%
    16:00 +27°C° 0.2 mm 4 mps 651 mmHg 60%
    17:00 +26°C° 0.3 mm 4 mps 651 mmHg 67%
    18:00 +24°C° 0.3 mm 3 mps 652 mmHg 73%
    19:00 +21°C° 0.3 mm 2 mps 652 mmHg 80%
    20:00 +21°C° 0 mm 2 mps 652 mmHg 83%
    21:00 +20°C° 0 mm 2 mps 652 mmHg 86%
    22:00 +19°C° 0 mm 2 mps 653 mmHg 90%
    23:00 +19°C° 0 mm 2 mps 652 mmHg 90%

    Day after tomorrow, 7 December, Saturday

    Time Temperature Precipitation Wind Pressure Humidity
    00:00 +19°C° 0 mm 2 mps 652 mmHg 91%
    01:00 +19°C° 0 mm 2 mps 652 mmHg 92%
    02:00 +18°C° 0 mm 2 mps 652 mmHg 92%
    03:00 +19°C° 0 mm 1 mps 651 mmHg 93%
    04:00 +19°C° 0 mm 1 mps 651 mmHg 94%
    05:00 +19°C° 0 mm 1 mps 652 mmHg 90%
    06:00 +20°C° 0 mm 1 mps 652 mmHg 87%
    07:00 +20°C° 0 mm 1 mps 653 mmHg 83%
    08:00 +22°C° 0 mm 1 mps 653 mmHg 75%
    09:00 +24°C° 0 mm 1 mps 653 mmHg 67%
    10:00 +24°C° 0 mm 0 mps 654 mmHg 59%
    11:00 +25°C° 0.2 mm 0 mps 653 mmHg 56%
    12:00 +29°C° 0.2 mm 1 mps 653 mmHg 54%
    13:00 +30°C° 0.2 mm 1 mps 653 mmHg 51%
    14:00 +29°C° 0.9 mm 2 mps 652 mmHg 56%
    15:00 +27°C° 0.9 mm 2 mps 651 mmHg 61%
    16:00 +26°C° 0.9 mm 3 mps 651 mmHg 65%
    17:00 +25°C° 1.1 mm 2 mps 651 mmHg 72%
    18:00 +23°C° 1.1 mm 2 mps 651 mmHg 78%
    19:00 +21°C° 1.1 mm 2 mps 651 mmHg 84%
    20:00 +20°C° 0.1 mm 2 mps 652 mmHg 86%
    21:00 +20°C° 0.1 mm 2 mps 652 mmHg 88%
    22:00 +20°C° 0.1 mm 3 mps 652 mmHg 90%
    23:00 +19°C° 0 mm 3 mps 652 mmHg 90%

    8 December, Sunday

    Time Temperature Precipitation Wind Pressure Humidity
    00:00 +19°C° 0 mm 3 mps 652 mmHg 91%
    01:00 +19°C° 0 mm 3 mps 652 mmHg 91%
    02:00 +18°C° 0 mm 3 mps 651 mmHg 91%
    03:00 +18°C° 0 mm 2 mps 651 mmHg 90%
    04:00 +17°C° 0 mm 2 mps 651 mmHg 90%
    05:00 +18°C° 0 mm 2 mps 651 mmHg 86%
    06:00 +18°C° 0 mm 2 mps 652 mmHg 83%
    07:00 +19°C° 0 mm 1 mps 652 mmHg 80%
    08:00 +21°C° 0 mm 2 mps 653 mmHg 70%
    09:00 +24°C° 0 mm 2 mps 653 mmHg 60%
    10:00 +26°C° 0 mm 2 mps 654 mmHg 51%
    11:00 +27°C° 0 mm 2 mps 653 mmHg 48%
    12:00 +28°C° 0 mm 3 mps 653 mmHg 46%
    13:00 +29°C° 0 mm 3 mps 653 mmHg 44%
    14:00 +28°C° 0 mm 3 mps 652 mmHg 46%
    15:00 +28°C° 0 mm 3 mps 652 mmHg 47%
    16:00 +27°C° 0 mm 4 mps 651 mmHg 48%
    17:00 +25°C° 0 mm 3 mps 651 mmHg 52%
    18:00 +24°C° 0 mm 3 mps 651 mmHg 56%
    19:00 +21°C° 0 mm 2 mps 651 mmHg 60%
    20:00 +20°C° 0 mm 2 mps 651 mmHg 64%
    21:00 +19°C° 0 mm 2 mps 652 mmHg 68%
    22:00 +18°C° 0 mm 1 mps 652 mmHg 71%
    23:00 +18°C° 0 mm 1 mps 651 mmHg 76%

    9 December, Monday

    Time Temperature Precipitation Wind Pressure Humidity
    00:00 +16°C° 0 mm 1 mps 651 mmHg 81%
    01:00 +16°C° 0 mm 1 mps 651 mmHg 85%
    02:00 +15°C° 0 mm 1 mps 651 mmHg 88%
    03:00 +15°C° 0 mm 1 mps 650 mmHg 90%
    04:00 +15°C° 0 mm 1 mps 650 mmHg 92%
    05:00 +16°C° 0 mm 1 mps 651 mmHg 85%
    06:00 +18°C° 0 mm 1 mps 651 mmHg 77%
    07:00 +19°C° 0 mm 1 mps 652 mmHg 70%
    08:00 +21°C° 0 mm 1 mps 653 mmHg 57%
    09:00 +24°C° 0 mm 2 mps 653 mmHg 44%
    10:00 +27°C° 0 mm 2 mps 654 mmHg 31%
    11:00 +28°C° 0 mm 3 mps 654 mmHg 29%
    12:00 +28°C° 0 mm 3 mps 653 mmHg 28%
    13:00 +29°C° 0 mm 4 mps 653 mmHg 26%
    14:00 +29°C° 0 mm 4 mps 652 mmHg 29%
    15:00 +28°C° 0 mm 4 mps 652 mmHg 31%
    16:00 +27°C° 0 mm 4 mps 651 mmHg 33%
    17:00 +25°C° 0 mm 4 mps 651 mmHg 39%
    18:00 +22°C° 0 mm 3 mps 651 mmHg 45%
    19:00 +20°C° 0 mm 2 mps 651 mmHg 51%
    20:00 +19°C° 0 mm 2 mps 651 mmHg 55%
    21:00 +18°C° 0 mm 2 mps 651 mmHg 58%
    22:00 +17°C° 0 mm 2 mps 652 mmHg 61%
    23:00 +16°C° 0 mm 2 mps 651 mmHg 68%

    10 December, Tuesday

    Time Temperature Precipitation Wind Pressure Humidity
    00:00 +16°C° 0 mm 2 mps 651 mmHg 74%
    01:00 +15°C° 0 mm 2 mps 651 mmHg 81%
    02:00 +15°C° 0 mm 1 mps 651 mmHg 83%
    03:00 +14°C° 0 mm 1 mps 651 mmHg 86%
    04:00 +14°C° 0 mm 1 mps 650 mmHg 89%
    05:00 +15°C° 0 mm 1 mps 651 mmHg 83%
    06:00 +16°C° 0 mm 1 mps 652 mmHg 77%
    07:00 +19°C° 0 mm 1 mps 652 mmHg 72%
    08:00 +20°C° 0 mm 2 mps 653 mmHg 58%
    09:00 +24°C° 0 mm 2 mps 653 mmHg 45%
    10:00 +27°C° 0 mm 3 mps 654 mmHg 32%
    11:00 +28°C° 0 mm 3 mps 654 mmHg 29%
    12:00 +28°C° 0 mm 3 mps 653 mmHg 27%
    13:00 +29°C° 0 mm 4 mps 653 mmHg 25%
    14:00 +29°C° 0 mm 4 mps 653 mmHg 27%
    15:00 +28°C° 0 mm 4 mps 652 mmHg 30%
    16:00 +28°C° 0 mm 4 mps 652 mmHg 32%
    17:00 +26°C° 0 mm 3 mps 652 mmHg 39%
    18:00 +22°C° 0 mm 3 mps 651 mmHg 46%
    19:00 +20°C° 0 mm 2 mps 651 mmHg 52%
    20:00 +19°C° 0 mm 2 mps 652 mmHg 56%
    21:00 +18°C° 0 mm 2 mps 652 mmHg 60%
    22:00 +17°C° 0 mm 2 mps 652 mmHg 64%
    23:00 +17°C° 0 mm 2 mps 652 mmHg 67%
    Show more